Jackson, TN

3:28 AM CST on November 19, 2017 (GMT -0600)
McKellar-Sipes Regional

Weather History for KMKL - April, 2013

Change the Weather History Date:

Friday, April 5, 2013

  Actual Average Record
Temperature  
Mean Temperature 53 °F 57 °F  
Max Temperature 67 °F 69 °F 88 °F (1988)
Min Temperature 39 °F 45 °F 28 °F (2004)
Degree Days  
Heating Degree Days 12 9  
Month to date heating degree days 86 48  
Since 1 July heating degree days 3423 3376  
Cooling Degree Days 0 1  
Month to date cooling degree days 0 5  
Year to date cooling degree days 4 16  
Growing Degree Days 2 (Base 50)    
Moisture  
Dew Point 42 °F    
Average Humidity 67    
Maximum Humidity 100    
Minimum Humidity 34    
Precipitation  
Precipitation 0.00 in 0.14 in 1.65 in (1955)
Month to date precipitation 0.50 0.75  
Year to date precipitation 16.29 13.74  
Snow  
Snow 0.00 in - - ()
Month to date snowfall 0.0  
Snow Depth 0.00 in    
Sea Level Pressure  
Sea Level Pressure 30.11 in    
Wind  
Wind Speed 3 mph (NNW)    
Max Wind Speed 12 mph    
Max Gust Speed 20 mph    
Visibility 5 miles    
Events Fog    
T = Trace of Precipitation, MM = Missing Value Source: NWS Daily Summary

Daily Weather History Graph

Daily Weather History Graph

Search for Another Location

Airport or City:

Trip Planner

Search our weather history database for the weather conditions in past years. The results will help you decide how hot, cold, wet, or windy it might be!

Date:

Astronomy

Apr. 05, 2013 Rise Set
Actual Time 6:36 AM CDT 7:20 PM CDT
Civil Twilight 6:10 AM CDT 7:46 PM CDT
Nautical Twilight 5:39 AM CDT 8:17 PM CDT
Astronomical Twilight 5:08 AM CDT 8:48 PM CDT
Moon 3:33 AM CDT (4/5) 2:53 PM CDT (4/5)
Length of Visible Light 13h 36m
Length of Day
12h 44m
Waning Crescent, 23% of the Moon is Illuminated
Apr 5
Waning Crescent
Apr 10
New
Apr 18
First Quarter
Apr 25
Full
May 2
Last Quarter

Hourly Weather History & Observations

Time (CDT) Temp. Windchill Dew Point Humidity Pressure Visibility Wind Dir Wind Speed Gust Speed Precip Events Conditions
12:45 AM 46.4 °F 44.3 °F 44.6 °F 93% 30.05 in 8.0 mi North 4.6 mph - N/A   Overcast
12:53 AM 46.0 °F 44.8 °F 44.1 °F 93% 30.06 in 8.0 mi NNE 3.5 mph - N/A   Overcast
1:53 AM 46.0 °F - 45.0 °F 96% 30.06 in 7.0 mi Calm Calm - N/A   Overcast
2:53 AM 45.0 °F 43.5 °F 45.0 °F 100% 30.06 in 1.8 mi NW 3.5 mph - N/A   Overcast
3:05 AM 44.6 °F 42.2 °F 44.6 °F 100% 30.06 in 0.5 mi NNW 4.6 mph - N/A Fog Fog
3:18 AM 44.6 °F 40.7 °F 44.6 °F 100% 30.06 in 0.2 mi NNW 6.9 mph - N/A Fog Fog
3:31 AM 44.6 °F 41.4 °F 44.6 °F 100% 30.07 in 0.5 mi NNW 5.8 mph - N/A Fog Fog
3:46 AM 44.6 °F 40.7 °F 44.6 °F 100% 30.08 in 1.0 mi NNW 6.9 mph - N/A   Mist
3:53 AM 45.0 °F 40.6 °F 44.1 °F 97% 30.09 in 1.0 mi North 8.1 mph - N/A   Mist
4:05 AM 44.6 °F 41.4 °F 44.6 °F 100% 30.09 in 0.8 mi North 5.8 mph - N/A   Mist
4:37 AM 44.6 °F 41.4 °F 44.6 °F 100% 30.10 in 1.2 mi NNW 5.8 mph - N/A   Overcast
4:53 AM 43.0 °F 41.3 °F 43.0 °F 100% 30.10 in 2.0 mi NNW 3.5 mph - N/A   Overcast
5:07 AM 42.8 °F 41.1 °F 42.8 °F 100% 30.10 in 1.0 mi NNW 3.5 mph - N/A   Overcast
5:25 AM 41.0 °F - 41.0 °F 100% 30.11 in 0.5 mi Calm Calm - N/A Fog Fog
5:35 AM 41.0 °F - 41.0 °F 100% 30.11 in 0.2 mi Calm Calm - N/A Fog Fog
5:53 AM 41.0 °F - 41.0 °F 100% 30.12 in 0.2 mi Calm Calm - N/A Fog Fog
6:53 AM 39.9 °F - 39.9 °F 100% 30.13 in 0.2 mi Calm Calm - 0.01 in Fog Fog
7:53 AM 39.0 °F - 39.0 °F 100% 30.15 in 0.2 mi Calm Calm - N/A Fog Fog
8:53 AM 43.0 °F - 42.1 °F 97% 30.16 in 0.2 mi Calm Calm - N/A Fog Fog
9:06 AM 42.8 °F - 42.8 °F 100% 30.16 in 0.2 mi Calm Calm - N/A Fog Fog
9:13 AM 44.6 °F 43.1 °F 42.8 °F 93% 30.16 in 0.8 mi NW 3.5 mph - N/A   Mist
9:18 AM 44.6 °F 43.1 °F 42.8 °F 93% 30.16 in 2.5 mi NW 3.5 mph - N/A   Overcast
9:25 AM 42.8 °F 41.1 °F 42.8 °F 100% 30.16 in 5.0 mi NNW 3.5 mph - N/A   Overcast
9:43 AM 44.6 °F 43.1 °F 42.8 °F 93% 30.16 in 10.0 mi NNW 3.5 mph - N/A   Scattered Clouds
9:53 AM 46.0 °F - 43.0 °F 89% 30.17 in 10.0 mi Calm Calm - N/A   Clear
10:53 AM 53.1 °F - 42.1 °F 66% 30.17 in 10.0 mi NW 3.5 mph - N/A   Clear
11:53 AM 57.9 °F - 39.9 °F 51% 30.16 in 10.0 mi Calm Calm - N/A   Clear
12:53 PM 61.0 °F - 37.9 °F 42% 30.14 in 10.0 mi NNW 6.9 mph - N/A   Clear
1:53 PM 64.0 °F - 37.0 °F 37% 30.12 in 10.0 mi Variable 5.8 mph - N/A   Clear
2:53 PM 64.9 °F - 36.0 °F 34% 30.11 in 10.0 mi NNW 6.9 mph - N/A   Clear
3:53 PM 66.0 °F - 37.0 °F 34% 30.09 in 10.0 mi NNW 3.5 mph - N/A   Clear
4:53 PM 66.0 °F - 37.9 °F 36% 30.08 in 10.0 mi NW 4.6 mph - N/A   Clear
5:53 PM 64.9 °F - 39.0 °F 39% 30.09 in 10.0 mi NNW 5.8 mph - N/A   Clear
6:53 PM 61.0 °F - 41.0 °F 48% 30.09 in 10.0 mi NW 3.5 mph - N/A   Clear
7:53 PM 53.1 °F - 41.0 °F 64% 30.10 in 10.0 mi SSW 4.6 mph - N/A   Clear
8:53 PM 50.0 °F - 41.0 °F 71% 30.11 in 10.0 mi Calm Calm - N/A   Clear
9:53 PM 46.9 °F - 42.1 °F 83% 30.13 in 10.0 mi Calm Calm - N/A   Clear
10:53 PM 45.0 °F 42.6 °F 42.1 °F 90% 30.12 in 10.0 mi South 4.6 mph - N/A   Clear
11:53 PM 43.0 °F - 41.0 °F 93% 30.10 in 10.0 mi Calm Calm - N/A   Clear